EcAMSat (43019 NORAD) Tracking and Keplerian Element Data

This shows tracking and keplerian element data for the satellite.

Feedback or suggestion? Click here.




ElementValue
Catalog43019
NameEcAMSat
Epoch Orbit16620
Epoch Day108.72244683
Epoch Year2019
RAAN282.4313
Inclination51.6396
Eccentricity0.0004433
Argument of Perigee233.592
Mean Anonmoly126.4664
Mean Motion15.60509736
Decay Rate5.743E-05
L11 43019U 98067NG 19108.72244683 .00005743 00000-0 74463-4 0 9999
L22 43019 51.6396 282.4313 0004433 233.5920 126.4664 15.60509736166206

Live tracking and technical data element details for EcAMSat (NORAD 43019). EcAMSat can be tracked NOW for your location showing map with azimuth and elevation plus other details from your city location.

Track the satellite on the map from your city or location and see movement details for azimuth, elevation, latitude, longitude, range, height, and movement on the map or in text.







IsCatalogInMostPopularTable: catalog: 43019, numindb: 272
Update: records affected: 1



GetName: 43019 EcAMSat

Hit Count: updated at: Tue, 23 Apr 2019 02:44:09 GMT